Location: Newark
(51.0500°N, 12.4500°E)
Time: 06:55:20
(UTC+00:00)

Vanguard 1 Rocket - All Passes

Search period start: 25 February 2020 00:00
Search period end: 06 March 2020 00:00
Orbit: 650 x 4226 km, 34.3° (Epoch: 24 February)

Date Brightness Start Highest point End Pass type
(mag) Time Alt. Az. Time Alt. Az. Time Alt. Az.
25 Feb - 02:17:29 10° SW 02:21:24 16° S 02:24:32 10° SSE visible
25 Feb - 22:42:58 10° S 22:45:45 11° SSE 22:48:11 10° SE night (unlit)
26 Feb - 01:05:24 10° SW 01:10:42 17° S 01:14:38 10° SE night (unlit)
26 Feb - 03:32:16 10° SW 03:34:36 12° SSW 03:36:40 10° S visible
26 Feb - 23:53:23 10° SSW 23:59:45 17° S 00:04:21 10° SE night (unlit)
27 Feb - 02:19:37 10° SW 02:24:08 17° S 02:27:36 10° SSE visible
27 Feb - 22:41:44 10° SSW 22:48:29 16° SSE 22:53:30 10° SE night (unlit)
28 Feb - 01:07:04 10° SW 01:13:28 20° S 01:17:57 10° SE night (unlit)
28 Feb - 03:35:11 10° SW 03:37:14 12° SSW 03:39:03 10° S visible
28 Feb - 21:31:15 10° S 21:36:56 13° SSE 21:41:29 10° SE visible
28 Feb - 23:54:27 10° SW 00:02:31 21° S 00:07:54 10° SE night (unlit)
29 Feb - 02:21:55 10° SW 02:26:50 18° SSW 02:30:30 10° SSE visible
29 Feb - 22:41:59 10° SSW 22:51:14 21° SSE 22:57:26 10° ESE night (unlit)
01 Mar - 01:08:57 10° SW 01:16:12 22° S 01:21:03 10° SE night (unlit)
01 Mar - 03:38:41 10° SW 03:39:48 10° SSW 03:40:50 10° SSW visible
01 Mar - 21:30:06 10° SSW 21:39:35 18° SSE 21:46:19 10° ESE visible
01 Mar - 23:55:51 10° SW 00:05:15 25° S 00:11:11 10° SE night (unlit)
02 Mar - 02:24:22 10° WSW 02:29:27 18° SSW 02:33:15 10° SSE visible
02 Mar - 20:19:41 10° S 20:27:39 14° SSE 20:33:53 10° SE visible
02 Mar - 22:42:46 10° SW 22:53:55 25° S 23:00:57 10° ESE visible
03 Mar - 01:11:00 10° WSW 01:18:53 24° SSW 01:24:02 10° SE night (unlit)
03 Mar - 21:30:02 10° SSW 21:42:12 23° SSE 21:50:11 10° ESE visible
03 Mar - 23:57:29 10° SW 00:07:56 28° S 00:14:19 10° SE night (unlit)
04 Mar - 02:26:57 10° WSW 02:32:01 17° SSW 02:35:48 10° SSE visible
04 Mar - 20:18:14 10° SSW 20:30:09 20° SSE 20:38:37 10° ESE visible
04 Mar - 22:43:53 10° SW 22:56:34 29° S 23:04:13 10° ESE visible
05 Mar - 01:13:09 10° WSW 01:21:29 24° SSW 01:26:53 10° SE night (unlit)
05 Mar - 19:08:24 10° S 19:17:53 15° SSE 19:25:27 10° ESE visible
05 Mar - 21:30:31 10° SW 21:44:47 28° SSE 21:53:39 10° ESE visible
